,,,PA_Meas_PMT16A,,PR_Meas_QMR101_102,,RH_Meas_QMH101,,SR_Meas_QMS101,,TA_Meas_QMH101,,GenWind,,GenWind,
date,time,status,PA,status,PR,status,RH,status,SR,status,TA,status,DirAvg,status,SpdAvg,
2011-10-24, 00:00:04,VALID,1009.255,VALID,0.0,VALID,103.276,VALID,0.0,VALID,23.032,VALID,123.0,VALID,1.409,
2011-10-24, 00:01:04,VALID,1009.306,VALID,0.0,VALID,103.276,VALID,0.0,VALID,23.032,VALID,119.0,VALID,1.227,
2011-10-24, 00:02:04,VALID,1009.327,VALID,0.0,VALID,103.268,VALID,0.0,VALID,23.051,VALID,119.0,VALID,1.223,
2011-10-24, 00:03:04,VALID,1009.356,VALID,0.0,VALID,103.26,VALID,0.0,VALID,23.051,VALID,115.0,VALID,1.019,
2011-10-24, 00:04:04,VALID,1009.4,VALID,0.0,VALID,103.253,VALID,0.0,VALID,23.03,VALID,111.0,VALID,1.072,
2011-10-24, 00:05:04,VALID,1009.402,VALID,0.0,VALID,103.283,VALID,0.0,VALID,23.051,VALID,103.0,VALID,0.87,
2011-10-24, 00:06:04,VALID,1009.409,VALID,0.0,VALID,103.268,VALID,0.0,VALID,23.071,VALID,123.0,VALID,1.016,
2011-10-24, 00:07:04,VALID,1009.453,VALID,0.0,VALID,103.276,VALID,0.0,VALID,23.051,VALID,100.0,VALID,0.648,
2011-10-24, 00:08:04,VALID,1009.442,VALID,0.0,VALID,103.268,VALID,0.0,VALID,23.071,VALID,99.0,VALID,0.762,
2011-10-24, 00:09:04,VALID,1009.476,VALID,0.0,VALID,103.26,VALID,0.0,VALID,23.071,VALID,91.0,VALID,0.927,
2011-10-24, 00:10:04,VALID,1009.502,VALID,0.0,VALID,103.26,VALID,0.0,VALID,23.069,VALID,109.0,VALID,1.051,
2011-10-24, 00:11:04,VALID,1009.519,VALID,0.0,VALID,103.245,VALID,0.0,VALID,23.071,VALID,118.0,VALID,1.06,
2011-10-24, 00:12:04,VALID,1009.555,VALID,0.0,VALID,103.245,VALID,0.0,VALID,23.09,VALID,117.0,VALID,0.549,
2011-10-24, 00:13:04,VALID,1009.551,VALID,0.0,VALID,103.268,VALID,0.0,VALID,23.09,VALID,112.0,VALID,0.483,
2011-10-24, 00:14:04,VALID,1009.588,VALID,0.0,VALID,103.245,VALID,0.0,VALID,23.109,VALID,123.0,VALID,0.872,
2011-10-24, 00:15:04,VALID,1009.61,VALID,0.0,VALID,103.276,VALID,0.112,VALID,23.071,VALID,120.0,VALID,1.166,
2011-10-24, 00:16:04,VALID,1009.631,VALID,0.0,VALID,103.283,VALID,0.0,VALID,23.09,VALID,130.0,VALID,0.851,
2011-10-24, 00:17:04,VALID,1009.655,VALID,0.0,VALID,103.283,VALID,0.0,VALID,23.071,VALID,117.0,VALID,0.942,
2011-10-24, 00:18:04,VALID,1009.658,VALID,0.0,VALID,103.268,VALID,0.112,VALID,23.071,VALID,140.0,VALID,0.521,
2011-10-24, 00:19:04,VALID,1009.695,VALID,0.0,VALID,103.268,VALID,0.112,VALID,23.09,VALID,140.0,VALID,0.494,
2011-10-24, 00:20:04,VALID,1009.703,VALID,0.0,VALID,103.26,VALID,0.0,VALID,23.049,VALID,154.0,VALID,0.487,
2011-10-24, 00:21:04,VALID,1009.73,VALID,0.0,VALID,103.245,VALID,0.0,VALID,23.09,VALID,151.0,VALID,0.437,
2011-10-24, 00:22:04,VALID,1009.73,VALID,0.0,VALID,103.237,VALID,0.0,VALID,23.071,VALID,152.0,VALID,0.463,
2011-10-24, 00:23:04,VALID,1009.726,VALID,0.0,VALID,103.237,VALID,0.0,VALID,23.088,VALID,151.0,VALID,0.334,
2011-10-24, 00:24:04,VALID,1009.722,VALID,0.0,VALID,103.253,VALID,0.0,VALID,23.09,VALID,152.0,VALID,0.63,
2011-10-24, 00:25:04,VALID,1009.713,VALID,0.0,VALID,103.215,VALID,0.0,VALID,23.109,VALID,155.0,VALID,0.228,
2011-10-24, 00:26:04,VALID,1009.771,VALID,0.0,VALID,103.222,VALID,0.0,VALID,23.088,VALID,123.0,VALID,0.663,
2011-10-24, 00:27:04,VALID,1009.74,VALID,0.0,VALID,103.23,VALID,0.0,VALID,23.109,VALID,122.0,VALID,0.484,
2011-10-24, 00:28:04,VALID,1009.772,VALID,0.0,VALID,103.222,VALID,0.0,VALID,23.109,VALID,122.0,VALID,0.526,
2011-10-24, 00:29:04,VALID,1009.789,VALID,0.0,VALID,103.222,VALID,0.0,VALID,23.109,VALID,122.0,VALID,0.302,
2011-10-24, 00:30:04,VALID,1009.793,VALID,0.0,VALID,103.199,VALID,0.112,VALID,23.108,VALID,123.0,VALID,0.285,
2011-10-24, 00:31:04,VALID,1009.812,VALID,0.0,VALID,103.199,VALID,0.112,VALID,23.108,VALID,122.0,VALID,0.246,
2011-10-24, 00:32:04,VALID,1009.818,VALID,0.0,VALID,103.222,VALID,0.0,VALID,23.129,VALID,80.0,VALID,0.693,
2011-10-24, 00:33:04,VALID,1009.805,VALID,0.0,VALID,103.237,VALID,0.0,VALID,23.109,VALID,81.0,VALID,0.495,
2011-10-24, 00:34:04,VALID,1009.801,VALID,0.0,VALID,103.237,VALID,0.0,VALID,23.088,VALID,80.0,VALID,0.155,
2011-10-24, 00:35:04,VALID,1009.82,VALID,0.0,VALID,103.222,VALID,0.0,VALID,23.109,VALID,79.0,VALID,0.005,
2011-10-24, 00:36:04,VALID,1009.787,VALID,0.0,VALID,103.222,VALID,0.0,VALID,23.129,VALID,79.0,VALID,0.408,
2011-10-24, 00:37:04,VALID,1009.808,VALID,0.0,VALID,103.215,VALID,0.0,VALID,23.129,VALID,79.0,VALID,0.287,
2011-10-24, 00:38:04,VALID,1009.788,VALID,0.0,VALID,103.215,VALID,0.0,VALID,23.129,VALID,79.0,VALID,0.203,
2011-10-24, 00:39:04,VALID,1009.799,VALID,0.0,VALID,103.199,VALID,0.0,VALID,23.129,VALID,79.0,VALID,0.0,
2011-10-24, 00:40:04,VALID,1009.801,VALID,0.0,VALID,103.23,VALID,0.0,VALID,23.088,VALID,79.0,VALID,0.0,
2011-10-24, 00:41:04,VALID,1009.815,VALID,0.0,VALID,103.245,VALID,0.0,VALID,23.109,VALID,79.0,VALID,0.0,
2011-10-24, 00:42:04,VALID,1009.814,VALID,0.0,VALID,103.237,VALID,0.0,VALID,23.109,VALID,78.0,VALID,0.004,
2011-10-24, 00:43:04,VALID,1009.822,VALID,0.0,VALID,103.237,VALID,0.0,VALID,23.088,VALID,79.0,VALID,0.054,
2011-10-24, 00:44:04,VALID,1009.834,VALID,0.0,VALID,103.222,VALID,0.0,VALID,23.109,VALID,79.0,VALID,0.32,
2011-10-24, 00:45:04,VALID,1009.844,VALID,0.0,VALID,103.207,VALID,0.0,VALID,23.129,VALID,79.0,VALID,0.05,
2011-10-24, 00:46:04,VALID,1009.872,VALID,0.0,VALID,103.192,VALID,0.0,VALID,23.129,VALID,79.0,VALID,0.0,
2011-10-24, 00:47:04,VALID,1009.884,VALID,0.0,VALID,103.199,VALID,0.0,VALID,23.129,VALID,79.0,VALID,0.0,
2011-10-24, 00:48:04,VALID,1009.899,VALID,0.0,VALID,103.199,VALID,0.0,VALID,23.108,VALID,79.0,VALID,0.0,
2011-10-24, 00:49:04,VALID,1009.929,VALID,0.0,VALID,103.176,VALID,0.0,VALID,23.127,VALID,79.0,VALID,0.0,
2011-10-24, 00:50:04,VALID,1009.912,VALID,0.0,VALID,103.184,VALID,0.0,VALID,23.168,VALID,79.0,VALID,0.412,
2011-10-24, 00:51:04,VALID,1009.958,VALID,0.0,VALID,103.161,VALID,0.0,VALID,23.148,VALID,114.0,VALID,0.598,
2011-10-24, 00:52:04,VALID,1009.973,VALID,0.0,VALID,103.169,VALID,0.0,VALID,23.129,VALID,113.0,VALID,0.586,
2011-10-24, 00:53:04,VALID,1009.988,VALID,0.0,VALID,103.199,VALID,0.0,VALID,23.129,VALID,113.0,VALID,0.396,
2011-10-24, 00:54:04,VALID,1009.976,VALID,0.0,VALID,103.169,VALID,0.0,VALID,23.108,VALID,114.0,VALID,0.362,
2011-10-24, 00:55:04,VALID,1009.977,VALID,0.0,VALID,103.199,VALID,0.112,VALID,23.127,VALID,114.0,VALID,0.31,
2011-10-24, 00:56:04,VALID,1009.975,VALID,0.0,VALID,103.199,VALID,0.112,VALID,23.129,VALID,114.0,VALID,0.009,
2011-10-24, 00:57:04,VALID,1010.002,VALID,0.0,VALID,103.192,VALID,0.0,VALID,23.129,VALID,114.0,VALID,0.0,
2011-10-24, 00:58:04,VALID,1010.033,VALID,0.0,VALID,103.176,VALID,0.0,VALID,23.108,VALID,114.0,VALID,0.057,
2011-10-24, 00:59:04,VALID,1010.038,VALID,0.0,VALID,103.192,VALID,0.112,VALID,23.129,VALID,114.0,VALID,0.225,
2011-10-24, 01:00:04,VALID,1010.076,VALID,0.0,VALID,103.169,VALID,0.0,VALID,23.148,VALID,113.0,VALID,0.17,
2011-10-24, 01:01:04,VALID,1010.094,VALID,0.0,VALID,103.146,VALID,0.0,VALID,23.127,VALID,113.0,VALID,0.229,
2011-10-24, 01:02:04,VALID,1010.146,VALID,0.0,VALID,103.169,VALID,0.0,VALID,23.148,VALID,114.0,VALID,0.342,
2011-10-24, 01:03:04,VALID,1010.166,VALID,0.0,VALID,103.176,VALID,0.0,VALID,23.148,VALID,114.0,VALID,0.441,
2011-10-24, 01:04:04,VALID,1010.196,VALID,0.0,VALID,103.154,VALID,0.0,VALID,23.148,VALID,113.0,VALID,0.377,
2011-10-24, 01:05:04,VALID,1010.211,VALID,0.0,VALID,103.146,VALID,0.0,VALID,23.148,VALID,113.0,VALID,0.221,
2011-10-24, 01:06:04,VALID,1010.269,VALID,0.0,VALID,103.146,VALID,0.0,VALID,23.168,VALID,113.0,VALID,0.416,
2011-10-24, 01:07:04,VALID,1010.31,VALID,0.0,VALID,103.169,VALID,0.0,VALID,23.148,VALID,113.0,VALID,0.298,
2011-10-24, 01:08:04,VALID,1010.299,VALID,0.0,VALID,103.169,VALID,0.112,VALID,23.148,VALID,85.0,VALID,0.254,
2011-10-24, 01:09:04,VALID,1010.321,VALID,0.0,VALID,103.154,VALID,0.0,VALID,23.168,VALID,86.0,VALID,0.673,
2011-10-24, 01:10:04,VALID,1010.36,VALID,0.0,VALID,103.146,VALID,0.0,VALID,23.168,VALID,86.0,VALID,0.688,
2011-10-24, 01:11:04,VALID,1010.377,VALID,0.0,VALID,103.138,VALID,0.0,VALID,23.168,VALID,86.0,VALID,0.37,
2011-10-24, 01:12:04,VALID,1010.399,VALID,0.0,VALID,103.138,VALID,0.0,VALID,23.168,VALID,87.0,VALID,0.062,
2011-10-24, 01:13:04,VALID,1010.372,VALID,0.0,VALID,103.138,VALID,0.112,VALID,23.168,VALID,87.0,VALID,0.003,
2011-10-24, 01:14:04,VALID,1010.405,VALID,0.0,VALID,103.154,VALID,0.0,VALID,23.168,VALID,86.0,VALID,0.002,
2011-10-24, 01:15:04,VALID,1010.398,VALID,0.0,VALID,103.184,VALID,0.0,VALID,23.148,VALID,86.0,VALID,0.304,
2011-10-24, 01:16:04,VALID,1010.442,VALID,0.0,VALID,103.192,VALID,0.0,VALID,23.148,VALID,87.0,VALID,0.295,
2011-10-24, 01:17:04,VALID,1010.451,VALID,0.0,VALID,103.176,VALID,0.0,VALID,23.17,VALID,87.0,VALID,0.323,
2011-10-24, 01:18:04,VALID,1010.489,VALID,0.0,VALID,103.169,VALID,0.0,VALID,23.129,VALID,86.0,VALID,0.482,
2011-10-24, 01:19:04,VALID,1010.526,VALID,0.0,VALID,103.169,VALID,0.0,VALID,23.129,VALID,87.0,VALID,0.43,
2011-10-24, 01:20:04,VALID,1010.555,VALID,0.0,VALID,103.138,VALID,0.0,VALID,23.148,VALID,86.0,VALID,0.431,
2011-10-24, 01:21:04,VALID,1010.583,VALID,0.0,VALID,103.138,VALID,0.0,VALID,23.127,VALID,87.0,VALID,0.536,
2011-10-24, 01:22:04,VALID,1010.589,VALID,0.0,VALID,103.108,VALID,0.0,VALID,23.168,VALID,87.0,VALID,0.481,
2011-10-24, 01:23:04,VALID,1010.636,VALID,0.0,VALID,103.093,VALID,0.0,VALID,23.187,VALID,87.0,VALID,0.58,
2011-10-24, 01:24:04,VALID,1010.644,VALID,0.0,VALID,103.123,VALID,0.0,VALID,23.168,VALID,100.0,VALID,0.617,
2011-10-24, 01:25:04,VALID,1010.7,VALID,0.0,VALID,103.108,VALID,0.0,VALID,23.187,VALID,99.0,VALID,0.336,
2011-10-24, 01:26:04,VALID,1010.699,VALID,0.0,VALID,103.138,VALID,0.0,VALID,23.168,VALID,94.0,VALID,1.063,
2011-10-24, 01:27:04,VALID,1010.716,VALID,0.0,VALID,103.176,VALID,0.0,VALID,23.148,VALID,102.0,VALID,0.959,
2011-10-24, 01:28:04,VALID,1010.757,VALID,0.0,VALID,103.169,VALID,0.0,VALID,23.148,VALID,97.0,VALID,0.775,
2011-10-24, 01:29:04,VALID,1010.766,VALID,0.0,VALID,103.176,VALID,0.0,VALID,23.148,VALID,93.0,VALID,0.667,
2011-10-24, 01:30:04,VALID,1010.772,VALID,0.0,VALID,103.176,VALID,0.112,VALID,23.127,VALID,92.0,VALID,0.697,
2011-10-24, 01:31:04,VALID,1010.787,VALID,0.0,VALID,103.169,VALID,0.0,VALID,23.109,VALID,88.0,VALID,0.637,
2011-10-24, 01:32:04,VALID,1010.81,VALID,0.0,VALID,103.138,VALID,0.0,VALID,23.129,VALID,85.0,VALID,0.513,
2011-10-24, 01:33:04,VALID,1010.795,VALID,0.0,VALID,103.146,VALID,0.112,VALID,23.127,VALID,83.0,VALID,0.579,
2011-10-24, 01:34:04,VALID,1010.822,VALID,0.0,VALID,103.146,VALID,0.0,VALID,23.129,VALID,100.0,VALID,1.064,
2011-10-24, 01:35:04,VALID,1010.837,VALID,0.0,VALID,103.138,VALID,0.0,VALID,23.148,VALID,92.0,VALID,0.621,
2011-10-24, 01:36:04,VALID,1010.811,VALID,0.0,VALID,103.131,VALID,0.0,VALID,23.108,VALID,92.0,VALID,0.555,
2011-10-24, 01:37:04,VALID,1010.84,VALID,0.0,VALID,103.161,VALID,0.0,VALID,23.129,VALID,93.0,VALID,0.502,
2011-10-24, 01:38:04,VALID,1010.832,VALID,0.0,VALID,103.131,VALID,0.0,VALID,23.129,VALID,94.0,VALID,0.05,
2011-10-24, 01:39:04,VALID,1010.831,VALID,0.0,VALID,103.123,VALID,0.0,VALID,23.127,VALID,93.0,VALID,0.415,
2011-10-24, 01:40:04,VALID,1010.863,VALID,0.0,VALID,103.131,VALID,0.0,VALID,23.148,VALID,108.0,VALID,0.904,
2011-10-24, 01:41:04,VALID,1010.872,VALID,0.0,VALID,103.115,VALID,0.0,VALID,23.129,VALID,110.0,VALID,0.655,
2011-10-24, 01:42:04,VALID,1010.908,VALID,0.0,VALID,103.131,VALID,0.0,VALID,23.17,VALID,109.0,VALID,0.581,
2011-10-24, 01:43:04,VALID,1010.941,VALID,0.0,VALID,103.115,VALID,0.0,VALID,23.148,VALID,124.0,VALID,1.041,
2011-10-24, 01:44:04,VALID,1010.983,VALID,0.0,VALID,103.154,VALID,0.0,VALID,23.129,VALID,127.0,VALID,1.076,
2011-10-24, 01:45:04,VALID,1010.996,VALID,0.0,VALID,103.161,VALID,0.112,VALID,23.109,VALID,123.0,VALID,1.114,
2011-10-24, 01:46:04,VALID,1011.0,VALID,0.0,VALID,103.154,VALID,0.0,VALID,23.088,VALID,118.0,VALID,0.843,
2011-10-24, 01:47:04,VALID,1011.01,VALID,0.0,VALID,103.131,VALID,0.112,VALID,23.109,VALID,115.0,VALID,1.129,
2011-10-24, 01:48:04,VALID,1011.03,VALID,0.0,VALID,103.154,VALID,0.0,VALID,23.09,VALID,117.0,VALID,1.034,
2011-10-24, 01:49:04,VALID,1011.027,VALID,0.0,VALID,103.146,VALID,0.0,VALID,23.09,VALID,115.0,VALID,0.838,
2011-10-24, 01:50:04,VALID,1011.001,VALID,0.0,VALID,103.169,VALID,0.112,VALID,23.109,VALID,99.0,VALID,0.783,
2011-10-24, 01:51:04,VALID,1010.985,VALID,0.0,VALID,103.138,VALID,0.0,VALID,23.131,VALID,107.0,VALID,0.797,
2011-10-24, 01:52:04,VALID,1010.994,VALID,0.0,VALID,103.154,VALID,0.0,VALID,23.09,VALID,108.0,VALID,0.582,
2011-10-24, 01:53:04,VALID,1010.994,VALID,0.0,VALID,103.131,VALID,0.0,VALID,23.09,VALID,126.0,VALID,0.968,
2011-10-24, 01:54:04,VALID,1010.986,VALID,0.0,VALID,103.146,VALID,0.0,VALID,23.09,VALID,127.0,VALID,0.822,
2011-10-24, 01:55:04,VALID,1010.946,VALID,0.0,VALID,103.131,VALID,0.0,VALID,23.071,VALID,126.0,VALID,0.546,
2011-10-24, 01:56:04,VALID,1010.97,VALID,0.0,VALID,103.123,VALID,0.0,VALID,23.071,VALID,111.0,VALID,0.506,
2011-10-24, 01:57:04,VALID,1010.936,VALID,0.0,VALID,103.131,VALID,0.0,VALID,23.09,VALID,114.0,VALID,0.492,
2011-10-24, 01:58:04,VALID,1010.902,VALID,0.0,VALID,103.123,VALID,0.0,VALID,23.069,VALID,101.0,VALID,0.714,
2011-10-24, 01:59:04,VALID,1010.877,VALID,0.0,VALID,103.108,VALID,0.0,VALID,23.069,VALID,100.0,VALID,0.043,
2011-10-24, 02:00:04,VALID,1010.851,VALID,0.0,VALID,103.131,VALID,0.0,VALID,23.069,VALID,101.0,VALID,0.28,
2011-10-24, 02:01:04,VALID,1010.838,VALID,0.0,VALID,103.123,VALID,0.112,VALID,23.049,VALID,88.0,VALID,0.705,
2011-10-24, 02:02:04,VALID,1010.817,VALID,0.0,VALID,103.108,VALID,0.0,VALID,23.071,VALID,83.0,VALID,0.517,
2011-10-24, 02:03:04,VALID,1010.813,VALID,0.0,VALID,103.108,VALID,0.0,VALID,23.069,VALID,83.0,VALID,0.275,
2011-10-24, 02:04:04,VALID,1010.816,VALID,0.0,VALID,103.115,VALID,0.0,VALID,23.09,VALID,82.0,VALID,0.518,
2011-10-24, 02:05:04,VALID,1010.791,VALID,0.0,VALID,103.138,VALID,0.0,VALID,23.049,VALID,83.0,VALID,0.0,
2011-10-24, 02:06:04,VALID,1010.786,VALID,0.0,VALID,103.108,VALID,0.112,VALID,23.09,VALID,83.0,VALID,0.345,
2011-10-24, 02:07:04,VALID,1010.789,VALID,0.0,VALID,103.1,VALID,0.0,VALID,23.09,VALID,83.0,VALID,0.087,
2011-10-24, 02:08:04,VALID,1010.805,VALID,0.0,VALID,103.115,VALID,0.0,VALID,23.09,VALID,83.0,VALID,0.264,
2011-10-24, 02:09:04,VALID,1010.825,VALID,0.0,VALID,103.1,VALID,0.0,VALID,23.09,VALID,109.0,VALID,0.64,
2011-10-24, 02:10:04,VALID,1010.811,VALID,0.0,VALID,103.1,VALID,0.0,VALID,23.09,VALID,109.0,VALID,0.455,
2011-10-24, 02:11:04,VALID,1010.811,VALID,0.0,VALID,103.093,VALID,0.0,VALID,23.071,VALID,116.0,VALID,0.756,
2011-10-24, 02:12:04,VALID,1010.779,VALID,0.0,VALID,103.1,VALID,0.0,VALID,23.071,VALID,118.0,VALID,0.62,
2011-10-24, 02:13:04,VALID,1010.753,VALID,0.0,VALID,103.108,VALID,0.0,VALID,23.071,VALID,120.0,VALID,0.566,
2011-10-24, 02:14:04,VALID,1010.768,VALID,0.0,VALID,103.123,VALID,0.0,VALID,23.09,VALID,120.0,VALID,0.139,
2011-10-24, 02:15:04,VALID,1010.777,VALID,0.0,VALID,103.123,VALID,0.0,VALID,23.071,VALID,120.0,VALID,0.5,
2011-10-24, 02:16:04,VALID,1010.81,VALID,0.0,VALID,103.093,VALID,0.0,VALID,23.071,VALID,99.0,VALID,0.454,
2011-10-24, 02:17:04,VALID,1010.805,VALID,0.0,VALID,103.093,VALID,0.0,VALID,23.071,VALID,99.0,VALID,0.348,
2011-10-24, 02:18:04,VALID,1010.828,VALID,0.0,VALID,103.077,VALID,0.0,VALID,23.071,VALID,99.0,VALID,0.273,
2011-10-24, 02:19:04,VALID,1010.831,VALID,0.0,VALID,103.07,VALID,0.0,VALID,23.071,VALID,99.0,VALID,0.516,
2011-10-24, 02:20:04,VALID,1010.835,VALID,0.0,VALID,103.093,VALID,0.0,VALID,23.049,VALID,81.0,VALID,0.706,
2011-10-24, 02:21:04,VALID,1010.858,VALID,0.0,VALID,103.123,VALID,0.0,VALID,23.071,VALID,80.0,VALID,0.727,
2011-10-24, 02:22:04,VALID,1010.858,VALID,0.0,VALID,103.131,VALID,0.0,VALID,23.071,VALID,67.0,VALID,0.602,
2011-10-24, 02:23:04,VALID,1010.855,VALID,0.0,VALID,103.108,VALID,0.0,VALID,23.051,VALID,67.0,VALID,0.825,
2011-10-24, 02:24:04,VALID,1010.85,VALID,0.0,VALID,103.123,VALID,0.0,VALID,23.053,VALID,67.0,VALID,0.57,
2011-10-24, 02:25:04,VALID,1010.832,VALID,0.0,VALID,103.131,VALID,0.0,VALID,23.053,VALID,71.0,VALID,0.884,
2011-10-24, 02:26:04,VALID,1010.811,VALID,0.0,VALID,103.131,VALID,0.0,VALID,23.012,VALID,74.0,VALID,1.202,
2011-10-24, 02:27:04,VALID,1010.828,VALID,0.0,VALID,103.123,VALID,0.0,VALID,23.032,VALID,72.0,VALID,0.801,
2011-10-24, 02:28:04,VALID,1010.783,VALID,0.0,VALID,103.123,VALID,0.0,VALID,23.033,VALID,75.0,VALID,0.809,
2011-10-24, 02:29:04,VALID,1010.769,VALID,0.0,VALID,103.115,VALID,0.0,VALID,23.032,VALID,73.0,VALID,0.476,
2011-10-24, 02:30:04,VALID,1010.752,VALID,0.0,VALID,103.1,VALID,0.0,VALID,23.032,VALID,59.0,VALID,0.839,
2011-10-24, 02:31:04,VALID,1010.741,VALID,0.0,VALID,103.123,VALID,0.0,VALID,23.012,VALID,55.0,VALID,0.601,
2011-10-24, 02:32:04,VALID,1010.698,VALID,0.0,VALID,103.123,VALID,0.0,VALID,23.032,VALID,59.0,VALID,0.671,
2011-10-24, 02:33:04,VALID,1010.661,VALID,0.0,VALID,103.123,VALID,0.0,VALID,23.014,VALID,54.0,VALID,0.722,
2011-10-24, 02:34:04,VALID,1010.664,VALID,0.0,VALID,103.146,VALID,0.0,VALID,22.993,VALID,47.0,VALID,0.744,
2011-10-24, 02:35:04,VALID,1010.643,VALID,0.0,VALID,103.146,VALID,0.0,VALID,22.993,VALID,48.0,VALID,0.614,
2011-10-24, 02:36:04,VALID,1010.638,VALID,0.0,VALID,103.161,VALID,0.0,VALID,22.973,VALID,68.0,VALID,0.19,
2011-10-24, 02:37:04,VALID,1010.63,VALID,0.0,VALID,103.161,VALID,0.0,VALID,22.954,VALID,69.0,VALID,0.193,
2011-10-24, 02:38:04,VALID,1010.665,VALID,0.0,VALID,103.131,VALID,0.0,VALID,22.954,VALID,68.0,VALID,0.113,
2011-10-24, 02:39:04,VALID,1010.652,VALID,0.0,VALID,103.146,VALID,0.0,VALID,22.954,VALID,68.0,VALID,0.21,
2011-10-24, 02:40:04,VALID,1010.675,VALID,0.0,VALID,103.154,VALID,0.0,VALID,22.934,VALID,68.0,VALID,0.513,
2011-10-24, 02:41:04,VALID,1010.673,VALID,0.0,VALID,103.169,VALID,0.0,VALID,22.915,VALID,85.0,VALID,0.522,
2011-10-24, 02:42:04,VALID,1010.692,VALID,0.0,VALID,103.176,VALID,0.0,VALID,22.915,VALID,84.0,VALID,0.283,
2011-10-24, 02:43:04,VALID,1010.678,VALID,0.0,VALID,103.161,VALID,0.0,VALID,22.915,VALID,74.0,VALID,0.632,
2011-10-24, 02:44:04,VALID,1010.661,VALID,0.0,VALID,103.154,VALID,0.0,VALID,22.897,VALID,70.0,VALID,0.384,
2011-10-24, 02:45:04,VALID,1010.665,VALID,0.0,VALID,103.161,VALID,0.0,VALID,22.895,VALID,72.0,VALID,0.658,
2011-10-24, 02:46:04,VALID,1010.643,VALID,0.0,VALID,103.154,VALID,0.0,VALID,22.895,VALID,72.0,VALID,0.393,
2011-10-24, 02:47:04,VALID,1010.661,VALID,0.0,VALID,103.169,VALID,0.0,VALID,22.876,VALID,64.0,VALID,0.425,
2011-10-24, 02:48:04,VALID,1010.619,VALID,0.0,VALID,103.161,VALID,0.0,VALID,22.876,VALID,68.0,VALID,0.332,
2011-10-24, 02:49:04,VALID,1010.649,VALID,0.0,VALID,103.154,VALID,0.0,VALID,22.876,VALID,67.0,VALID,0.61,
2011-10-24, 02:50:04,VALID,1010.653,VALID,0.0,VALID,103.138,VALID,0.0,VALID,22.855,VALID,67.0,VALID,0.621,
2011-10-24, 02:51:04,VALID,1010.659,VALID,0.0,VALID,103.154,VALID,0.0,VALID,22.876,VALID,77.0,VALID,1.013,
2011-10-24, 02:52:04,VALID,1010.647,VALID,0.0,VALID,103.146,VALID,0.0,VALID,22.856,VALID,62.0,VALID,1.128,
2011-10-24, 02:53:05,VALID,1010.689,VALID,0.0,VALID,103.161,VALID,0.0,VALID,22.876,VALID,81.0,VALID,0.994,
2011-10-24, 02:54:05,VALID,1010.703,VALID,0.0,VALID,103.138,VALID,0.0,VALID,22.856,VALID,82.0,VALID,0.737,
2011-10-24, 02:55:05,VALID,1010.727,VALID,0.0,VALID,103.154,VALID,0.0,VALID,22.877,VALID,82.0,VALID,0.71,
2011-10-24, 02:56:05,VALID,1010.761,VALID,0.0,VALID,103.146,VALID,0.112,VALID,22.856,VALID,80.0,VALID,0.586,
2011-10-24, 02:57:05,VALID,1010.768,VALID,0.0,VALID,103.123,VALID,0.0,VALID,22.856,VALID,80.0,VALID,0.768,
2011-10-24, 02:58:05,VALID,1010.791,VALID,0.0,VALID,103.115,VALID,0.0,VALID,22.876,VALID,101.0,VALID,0.939,
2011-10-24, 02:59:05,VALID,1010.827,VALID,0.0,VALID,103.1,VALID,0.0,VALID,22.876,VALID,77.0,VALID,0.574,
2011-10-24, 03:00:05,VALID,1010.808,VALID,0.0,VALID,103.1,VALID,0.0,VALID,22.876,VALID,79.0,VALID,0.651,
2011-10-24, 03:01:05,VALID,1010.83,VALID,0.0,VALID,103.108,VALID,0.0,VALID,22.876,VALID,80.0,VALID,0.906,
2011-10-24, 03:02:05,VALID,1010.859,VALID,0.0,VALID,103.123,VALID,0.0,VALID,22.876,VALID,66.0,VALID,1.118,
2011-10-24, 03:03:05,VALID,1010.871,VALID,0.0,VALID,103.154,VALID,0.0,VALID,22.876,VALID,63.0,VALID,0.888,
2011-10-24, 03:04:05,VALID,1010.912,VALID,0.0,VALID,103.138,VALID,0.0,VALID,22.856,VALID,83.0,VALID,0.849,
2011-10-24, 03:05:05,VALID,1010.939,VALID,0.0,VALID,103.146,VALID,0.0,VALID,22.876,VALID,82.0,VALID,0.814,
2011-10-24, 03:06:05,VALID,1010.91,VALID,0.0,VALID,103.131,VALID,0.0,VALID,22.856,VALID,76.0,VALID,0.717,
2011-10-24, 03:07:05,VALID,1010.908,VALID,0.0,VALID,103.146,VALID,0.0,VALID,22.856,VALID,65.0,VALID,0.886,
2011-10-24, 03:08:05,VALID,1010.899,VALID,0.0,VALID,103.146,VALID,0.0,VALID,22.835,VALID,72.0,VALID,1.154,
2011-10-24, 03:09:05,VALID,1010.873,VALID,0.0,VALID,103.146,VALID,0.0,VALID,22.856,VALID,73.0,VALID,0.969,
2011-10-24, 03:10:05,VALID,1010.855,VALID,0.0,VALID,103.123,VALID,0.0,VALID,22.856,VALID,70.0,VALID,0.492,
2011-10-24, 03:11:05,VALID,1010.826,VALID,0.0,VALID,103.138,VALID,0.0,VALID,22.856,VALID,68.0,VALID,0.781,
2011-10-24, 03:12:05,VALID,1010.817,VALID,0.0,VALID,103.146,VALID,0.0,VALID,22.856,VALID,69.0,VALID,0.625,
2011-10-24, 03:13:05,VALID,1010.786,VALID,0.0,VALID,103.169,VALID,0.0,VALID,22.837,VALID,83.0,VALID,0.474,
2011-10-24, 03:14:05,VALID,1010.79,VALID,0.0,VALID,103.192,VALID,0.112,VALID,22.817,VALID,336.0,VALID,0.513,
2011-10-24, 03:15:05,VALID,1010.763,VALID,0.0,VALID,103.161,VALID,0.0,VALID,22.798,VALID,61.0,VALID,0.622,
2011-10-24, 03:16:05,VALID,1010.764,VALID,0.0,VALID,103.199,VALID,0.0,VALID,22.798,VALID,67.0,VALID,1.174,
2011-10-24, 03:17:05,VALID,1010.751,VALID,0.0,VALID,103.192,VALID,0.0,VALID,22.778,VALID,61.0,VALID,1.05,
2011-10-24, 03:18:05,VALID,1010.784,VALID,0.0,VALID,103.169,VALID,0.0,VALID,22.798,VALID,71.0,VALID,0.647,
2011-10-24, 03:19:05,VALID,1010.758,VALID,0.0,VALID,103.176,VALID,0.0,VALID,22.757,VALID,83.0,VALID,1.364,
2011-10-24, 03:20:05,VALID,1010.747,VALID,0.0,VALID,103.184,VALID,0.0,VALID,22.778,VALID,71.0,VALID,0.522,
2011-10-24, 03:21:05,VALID,1010.767,VALID,0.0,VALID,103.169,VALID,0.112,VALID,22.759,VALID,71.0,VALID,0.564,
2011-10-24, 03:22:05,VALID,1010.754,VALID,0.0,VALID,103.184,VALID,0.0,VALID,22.759,VALID,67.0,VALID,0.936,
2011-10-24, 03:23:05,VALID,1010.747,VALID,0.0,VALID,103.184,VALID,0.0,VALID,22.739,VALID,85.0,VALID,0.891,
2011-10-24, 03:24:05,VALID,1010.735,VALID,0.0,VALID,103.199,VALID,0.0,VALID,22.739,VALID,69.0,VALID,0.984,
2011-10-24, 03:25:05,VALID,1010.73,VALID,0.0,VALID,103.199,VALID,0.0,VALID,22.739,VALID,56.0,VALID,1.074,
2011-10-24, 03:26:05,VALID,1010.709,VALID,0.0,VALID,103.199,VALID,0.0,VALID,22.699,VALID,55.0,VALID,0.926,
2011-10-24, 03:27:05,VALID,1010.691,VALID,0.0,VALID,103.184,VALID,0.0,VALID,22.72,VALID,67.0,VALID,0.853,
2011-10-24, 03:28:05,VALID,1010.683,VALID,0.0,VALID,103.207,VALID,0.112,VALID,22.7,VALID,77.0,VALID,0.586,
2011-10-24, 03:29:05,VALID,1010.682,VALID,0.0,VALID,103.199,VALID,0.0,VALID,22.72,VALID,80.0,VALID,0.827,
2011-10-24, 03:30:05,VALID,1010.705,VALID,0.0,VALID,103.184,VALID,0.0,VALID,22.72,VALID,81.0,VALID,1.112,
2011-10-24, 03:31:05,VALID,1010.696,VALID,0.0,VALID,103.184,VALID,0.0,VALID,22.7,VALID,65.0,VALID,0.717,
2011-10-24, 03:32:05,VALID,1010.71,VALID,0.0,VALID,103.154,VALID,0.112,VALID,22.72,VALID,65.0,VALID,1.038,
2011-10-24, 03:33:05,VALID,1010.668,VALID,0.0,VALID,103.161,VALID,0.0,VALID,22.72,VALID,63.0,VALID,0.902,
2011-10-24, 03:34:05,VALID,1010.647,VALID,0.0,VALID,103.154,VALID,0.0,VALID,22.72,VALID,81.0,VALID,0.72,
2011-10-24, 03:35:05,VALID,1010.637,VALID,0.0,VALID,103.154,VALID,0.0,VALID,22.72,VALID,77.0,VALID,1.069,
2011-10-24, 03:36:05,VALID,1010.612,VALID,0.0,VALID,103.161,VALID,0.0,VALID,22.7,VALID,78.0,VALID,1.365,
2011-10-24, 03:37:05,VALID,1010.618,VALID,0.0,VALID,103.184,VALID,0.0,VALID,22.7,VALID,61.0,VALID,0.938,
2011-10-24, 03:38:05,VALID,1010.609,VALID,0.0,VALID,103.192,VALID,0.0,VALID,22.7,VALID,63.0,VALID,1.148,
2011-10-24, 03:39:05,VALID,1010.598,VALID,0.0,VALID,103.169,VALID,0.0,VALID,22.679,VALID,78.0,VALID,0.898,